weather.gov     
National Weather Service

Regional Weather Roundup
NWS Homepage
This page is being discontinued on March 12, 2014.
The same data is available at this site. Please update your bookmarks.
Thank you, and we apologize for the inconvenience.
Please send an email to SR-SRH.Webmaster@noaa.gov with any concerns.


Current Version
Previous Version:    01  02  03  04  05  06  07  08  09  10  11  12  13  14  15  16  17  18  19  20  21  22  23  24  25  26  27  28  29  30  
   31  32  33  34  35  36  37  38  39  40  41  42  43  44  45  46  47  48  49  50  51  52  53  
[Printable]
660
ASUS43 KGLD 310708
RWRGLD

GOODLAND FORECAST AREA HOURLY WEATHER ROUNDUP
NATIONAL WEATHER SERVICE GOODLAND KS
100 AM MDT THU JUL 31 2014

...OFFICIAL OBSERVATIONS...

CITY           SKY/WX    TMP DP  RH WIND       PRES   REMARKS
GOODLAND KS    CLEAR     58  56  93 W7        30.26F
HILL CITY KS   PTCLDY    60  54  80 CALM      30.18F
IMPERIAL NEB   PTCLDY    59  56  89 W7        30.22F
MCCOOK NEB     CLEAR     62  59  90 W7        30.19F
AKRON CO       CLOUDY    58  55  90 W6        30.29F
BURLINGTON CO  MOCLDY    59  55  87 W6        30.28F
LIMON CO       CLOUDY    56  55  97 CALM      30.34F
$$

...UNOFFICIAL OBSERVATIONS...

CITY           SKY/WX    TMP DP  RH WIND       PRES   REMARKS
COLBY KS       CLEAR     59  59 100 W6        30.23F
GOVE KS          N/A     61  32  33 MISG        N/A
NORTON KS      CLEAR     63  50  63 S5        30.16F
OBERLIN KS     FAIR      63  57  82 NW7       30.19F
SHARON SPRINGS   N/A     60  57  90 CALM        N/A
ST FRANCIS KS  CLEAR     59  54  82 SW5       30.24F
WAKEENEY KS      N/A     65  52  62 MISG        N/A
TRENTON NEB      N/A     62  32  32 W9          N/A
KIT CARSON CO    N/A     58  55  90 CALM        N/A
WRAY CO          N/A     59  59 100 SW3       30.25F
YUMA CO          N/A     59  57  92 W5          N/A
$$




U.S. Dept. of Commerce
NOAA National Weather Service
1325 East West Highway
Silver Spring, MD 20910
E-mail: w-nws.webmaster@noaa.gov
Page last modified: May 16, 2007
NATIONAL WEATHER SERVICE: for Safety, for Work, for Fun - FOR LIFE